Regional Weather Roundup
Issued by NWS

Home | Current Version | Previous Version | Graphics & Text | Print | Product List | Glossary On
Versions: 1 2 3 4 5 6 7 8 9 10 11 12 13 14 15 16 17 18 19 20 21 22 23 24 25 26 27 28
000
ASUS45 KPSR 200010
RWRAZ

ARIZONA HOURLY REGIONAL WEATHER ROUNDUP
NATIONAL WEATHER SERVICE PHOENIX AZ
500 PM MST SUN FEB 19 2017

NOTE: FAIR INDICATES FEW OR NO CLOUDS BELOW 12,000 FEET WITH NO
SIGNIFICANT WEATHER AND/OR OBSTRUCTIONS TO VISIBILITY.

AZZ001>003-036-200100-
NORTHWEST ARIZONA

CITY           SKY/WX    TMP DP  RH WIND       PRES   REMARKS
BULLHEAD CITY  CLOUDY    64  50  59 S9        29.91S
KINGMAN        CLOUDY    52  35  52 SW14      29.94R
6HR MIN TEMP:  49; 6HR MAX TEMP:  55; 6HR PCP: TRACE;

$$

AZZ004>008-015-016-018-200100-
NORTH CENTRAL ARIZONA

CITY           SKY/WX    TMP DP  RH WIND       PRES   REMARKS
GRAND CANYON   PTSUNNY   40  39  97 SW12      29.94R WCI  33
6HR MIN TEMP:  33; 6HR MAX TEMP:  40; 6HR PCP:  0.08;

WILLIAMS       CLOUDY    39  34  81 SW8G16    29.95R WCI  34
PRESCOTT       CLOUDY    44  41  89 S5        29.96R
6HR MIN TEMP:  43; 6HR MAX TEMP:  48; 6HR PCP:  0.02;

FLAGSTAFF      MIX PCPN  35  33  92 W7        29.95R FOG     WCI  29
6HR MIN TEMP:  32; 6HR MAX TEMP:  37; 6HR PCP: TRACE;

PAYSON         CLOUDY    43  41  93 SW6       30.00R
PAGE           PTSUNNY   52  35  52 N3        29.85R
6HR MIN TEMP:  44; 6HR MAX TEMP:  52; 6HR PCP:  0.02;

$$

AZZ009>014-017-200100-
NORTHEAST ARIZONA

CITY           SKY/WX    TMP DP  RH WIND       PRES   REMARKS
WINSLOW        CLOUDY    52  34  50 SW17      29.91R
6HR MIN TEMP:  45; 6HR MAX TEMP:  56; 6HR PCP: TRACE;

SAINT JOHNS    MOSUNNY   47  31  53 W18G31    29.91R
6HR MIN TEMP:  46; 6HR MAX TEMP:  52;

WINDOW ROCK    PTSUNNY   40  31  70 SW7       29.90F
6HR MIN TEMP:  37; 6HR MAX TEMP:  43; 6HR PCP:  0.02;

SHOW LOW       PTSUNNY   36  32  87 SW16      29.98R WCI  26
$$

AZZ023-200100-
GREATER PHOENIX AREA

CITY           SKY/WX    TMP DP  RH WIND       PRES   REMARKS
PHOENIX        PTSUNNY   59  49  69 NW5       29.95R
6HR MIN TEMP:  53; 6HR MAX TEMP:  60; 6HR PCP: TRACE;

BUCKEYE        PTSUNNY   59  57  94 NE3       29.96R
GLENDALE       PTSUNNY   59  57  94 S8        29.96S
LUKE AFB       PTSUNNY   59  54  84 S7        29.94R
6HR MIN TEMP:  55; 6HR MAX TEMP:  59; 6HR PCP:  0.07;

DEER VALLEY    PTSUNNY   56  52  86 S7        29.95R
6HR MIN TEMP:  50; 6HR MAX TEMP:  57; 6HR PCP:  0.06;

SCOTTSDALE     LGT RAIN  56  50  80 CALM      29.97F
6HR MIN TEMP:  51; 6HR MAX TEMP:  57; 6HR PCP:  0.04;

MESA-GATEWAY   PTSUNNY   55  50  82 N6        29.98R
CHANDLER       PTSUNNY   59  50  72 VRB5      29.96R
$$

AZZ027-028-200100-
SOUTHWEST MARICOPA COUNTY AND PINAL COUNTY

CITY           SKY/WX    TMP DP  RH WIND       PRES   REMARKS
CASA GRANDE    NOT AVBL
GILA BEND      PTSUNNY   59  52  77 CALM      29.96R
6HR MIN TEMP:  59; 6HR MAX TEMP:  63; 6HR PCP: TRACE;

$$

AZZ503-504-507>509-200100-
SOUTHEAST ARIZONA

CITY           SKY/WX    TMP DP  RH WIND       PRES   REMARKS
TUCSON         CLOUDY    56  46  69 E7        29.99R
6HR MIN TEMP:  52; 6HR MAX TEMP:  58; 6HR PCP:  0.04;

DAVIS-MONTHAN  PTSUNNY   54  47  76 SE6       29.98R
6HR MIN TEMP:  52; 6HR MAX TEMP:  57; 6HR PCP:  0.07;

RYAN FIELD     PTSUNNY   57  46  67 W7        30.00R
NOGALES        LGT RAIN  52  44  74 S12       30.00R
6HR MIN TEMP:  48; 6HR MAX TEMP:  57; 6HR PCP:  0.04;

SIERRA VISTA   PTSUNNY   49  36  61 SW13      30.01R
6HR MIN TEMP:  47; 6HR MAX TEMP:  55;

DOUGLAS        PTSUNNY   51  40  65 N12       29.99R
6HR MIN TEMP:  44; 6HR MAX TEMP:  54; 6HR PCP:  0.10;

SAFFORD        CLOUDY    57  38  48 NW9       29.94R
6HR MIN TEMP:  54; 6HR MAX TEMP:  61;

$$

AZZ020-021-025-026-031-200100-
SOUTHWEST ARIZONA

CITY           SKY/WX    TMP DP  RH WIND       PRES   REMARKS
YUMA           MOSUNNY   67  49  52 S10       29.93R
6HR MIN TEMP:  62; 6HR MAX TEMP:  68;

$$

CAZ031-033-041-043-047-048-061-200100-
SOUTHERN CALIFORNIA

CITY           SKY/WX    TMP DP  RH WIND       PRES   REMARKS
DOWNTOWN L.A.  CLOUDY    61  49  64 CALM      29.99S
6HR MIN TEMP:  57; 6HR MAX TEMP:  63;

L.A. AIRPORT   PTSUNNY   58  50  75 W8        29.99S
6HR MIN TEMP:  56; 6HR MAX TEMP:  59; 6HR PCP: TRACE;

SAN DIEGO      PTSUNNY   59  43  55 SW8       30.05R
6HR MIN TEMP:  58; 6HR MAX TEMP:  62; 6HR PCP: TRACE;

BURBANK        CLOUDY    57  47  69 S7        29.98R
6HR MIN TEMP:  53; 6HR MAX TEMP:  60; 6HR PCP: TRACE;

ONTARIO        PTSUNNY   56  48  74 SW10      29.98R
6HR MIN TEMP:  55; 6HR MAX TEMP:  58; 6HR PCP: TRACE;

RIVERSIDE      CLOUDY    59  49  69 NW5       29.98R
6HR MIN TEMP:  56; 6HR MAX TEMP:  61;

PALM SPRINGS   MOSUNNY   65  53  65 S8        29.92S
6HR MIN TEMP:  59; 6HR MAX TEMP:  67;

EL CENTRO NAS  SUNNY     70  42  36 W21       29.93R
6HR MIN TEMP:  56; 6HR MAX TEMP:  72; 6HR PCP: TRACE;

IMPERIAL       SUNNY     70  45  40 W15       29.91R
6HR MIN TEMP:  55; 6HR MAX TEMP:  70;

BLYTHE         MOSUNNY   65  48  54 SW12      29.92R
6HR MIN TEMP:  59; 6HR MAX TEMP:  67;

NEEDLES        PTSUNNY   66  49  54 S9        29.91R
6HR MIN TEMP:  58; 6HR MAX TEMP:  66;

$$

NVZ020-UTZ003-200100-
SOUTHERN NEVADA-UTAH

CITY           SKY/WX    TMP DP  RH WIND       PRES   REMARKS
LAS VEGAS      PTSUNNY   61  37  41 SW10      29.85R
6HR MIN TEMP:  57; 6HR MAX TEMP:  63;

SALT LAKE CITY PTSUNNY   53  38  56 CALM      29.76R
6HR MIN TEMP:  46; 6HR MAX TEMP:  53; 6HR PCP:  0.01;

$$

NMZ009-TXZ055-200100-
NEW MEXICO-WEST TEXAS

CITY           SKY/WX    TMP DP  RH WIND       PRES   REMARKS
ALBUQUERQUE    MOCLDY    51  28  41 CALM      29.86R
6HR MIN TEMP:  45; 6HR MAX TEMP:  53; 6HR PCP: TRACE;

EL PASO        PTSUNNY   57  27  31 W13       29.93R
6HR MIN TEMP:  54; 6HR MAX TEMP:  59;

$$


........................KEY........................
SKY/WX - SKY CONDITION/WEATHER
TMP    - TEMPERATURE IN FAHRENHEIT
DP     - DEW POINT IN FAHRENHEIT
RH     - RELATIVE HUMIDITY IN PERCENT
WIND   - DIRECTION AND SPEED IN MILES PER HOUR (MPH)
VRB    - VARIABLE WIND DIRECTION
PRES   - MEAN SEA LEVEL PRESSURE IN INCHES OF MERCURY
         F - FALLING PRESSURE   R - RISING PRESSURE
         S - STEADY PRESSURE
VSB    - VISIBILITY IN MILES
HX     - HEAT INDEX IN FAHRENHEIT
WCI    - WIND CHILL INDEX IN FAHRENHEIT
TC     - TEMPERATURE IN CELSIUS WHICH IS ALSO KNOWN AS
         TEMPERATURE IN CENTIGRADE
AFB    - AIR FORCE BASE
         LUKE AFB IS LUKE AIR FORCE BASE
         DAVIS-MONTHAN IS DAVIS-MONTHAN AIR FORCE BASE
NAS    - NAVAL AIR STATION
         EL CENTRO NAS IS EL CENTRO NAVAL AIR STATION
N/A    - NOT AVAILABLE





USA.gov is the U.S. government's official web portal to all federal, state and local government web resources and services.